Theta_e
334 326 326 324 311 311 303 304 311 309 311 317 319 317 316 319 316 313 336 339 338 340 344 345 348 349 348 346 345 345 344 341 341 340 340 339 340 341 342 342 345 342 339 338 338 338 337 337 336
329 324 325 320 307 304 303 309 307 312 317 320 319 319 317 318 326 329 333 339 339 341 342 344 345 348 347 346 346 345 344 341 340 339 338 338 339 343 342 343 344 343 338 337 337 336 336 335 335
327 323 319 315 308 303 304 309 311 316 319 318 317 321 320 320 328 331 338 340 339 339 341 345 345 347 347 347 345 344 343 341 340 338 338 339 338 342 342 343 344 342 338 336 336 336 335 334 334
323 323 319 311 305 306 308 310 313 315 317 319 319 315 324 330 330 335 339 340 337 337 341 343 346 347 347 347 346 344 343 342 340 338 337 338 337 341 342 341 342 341 337 336 335 335 334 334 333
327 321 312 309 307 308 310 314 316 313 313 314 317 313 318 329 336 337 337 338 335 336 341 343 344 346 346 346 346 344 342 342 340 338 336 337 336 339 340 339 339 338 338 335 335 334 333 332 332
320 320 309 307 308 309 311 315 316 314 313 315 315 313 320 332 334 336 337 336 336 334 337 342 339 341 344 345 345 344 342 341 340 337 335 336 335 335 338 337 334 336 337 336 335 333 332 331 330
317 315 310 309 308 308 311 317 315 313 313 313 318 311 322 328 335 336 335 335 335 334 336 339 342 341 337 341 341 342 341 340 339 338 337 336 335 334 334 334 335 334 335 336 335 333 332 330 329
318 316 311 311 308 308 313 315 317 314 313 321 321 311 316 328 335 336 335 333 331 332 334 336 338 342 342 343 335 336 338 338 338 336 333 331 331 331 332 332 334 334 333 334 335 333 331 329 328
318 311 309 311 309 311 314 312 315 317 315 318 321 319 325 333 334 332 331 329 328 330 332 333 336 338 338 340 337 332 333 333 332 331 328 326 331 331 329 328 332 334 332 330 332 333 331 328 326
316 311 312 315 316 313 312 314 314 313 314 315 319 325 328 332 330 327 326 324 325 328 330 330 334 336 339 337 340 340 338 337 336 334 333 331 331 330 329 326 328 330 330 330 328 328 329 325 326
316 310 315 315 313 314 313 311 314 313 312 315 316 321 326 329 329 327 325 323 323 326 329 328 331 334 336 336 340 339 338 337 335 335 333 332 330 330 329 328 327 328 323 326 326 324 325 326 325
310 315 315 314 312 312 312 314 310 313 316 318 320 322 326 326 327 327 326 324 323 324 327 328 328 331 334 336 337 338 336 336 334 334 333 330 329 328 327 327 326 328 326 327 328 327 327 326 326
310 310 314 315 312 311 312 311 312 313 317 317 318 320 324 325 327 329 330 329 326 324 326 328 327 328 330 333 334 334 334 335 335 332 332 330 327 328 326 326 326 326 326 326 326 326 325 325 325
309 309 311 314 314 313 311 313 312 316 319 318 315 316 318 321 324 327 329 329 328 327 326 329 327 327 328 330 331 332 333 333 333 332 331 329 328 328 326 324 324 323 325 325 325 325 324 324 324
311 307 309 311 313 313 314 310 311 317 319 316 318 318 319 321 322 324 328 329 330 330 329 327 329 328 327 328 330 331 332 332 331 331 330 329 328 327 326 325 324 323 324 325 325 324 324 323 323
305 304 298 305 309 312 313 302 312 318 318 316 316 318 320 322 323 324 326 329 331 331 331 330 329 329 328 328 329 330 331 331 330 330 330 329 328 327 328 326 324 325 324 324 324 323 322 323 323
302 294 297 299 310 308 309 301 308 314 316 315 316 318 318 320 322 325 326 327 329 331 331 331 331 329 329 329 329 329 330 331 330 330 329 328 329 328 328 328 327 326 325 325 325 324 323 322 323
294 295 296 296 302 305 303 304 306 310 313 312 314 315 317 317 317 321 325 328 328 330 331 332 332 331 330 330 329 329 330 331 331 329 329 328 328 328 328 329 328 328 326 326 326 324 324 324 324
299 297 296 299 303 302 302 302 304 307 308 308 310 312 314 316 320 322 322 324 327 329 330 330 331 331 331 329 327 327 326 329 330 331 331 328 327 327 328 328 328 328 326 326 326 325 324 323 325
300 297 296 299 302 302 301 299 303 305 306 308 308 309 310 312 315 318 321 321 323 326 329 329 330 331 332 332 330 329 328 329 329 330 330 330 328 327 327 328 327 328 326 325 326 325 323 324 325
297 296 296 296 301 303 300 297 300 304 307 308 309 310 311 311 312 313 316 320 321 323 328 328 330 332 332 332 332 330 330 328 326 326 328 329 330 329 327 327 327 327 327 325 326 326 324 322 324
293 300 298 297 295 290 299 289 298 302 303 305 307 309 310 311 313 315 316 317 319 324 327 329 329 330 332 333 332 330 327 324 326 326 327 328 330 329 328 327 327 327 327 326 326 326 325 324 321
297 301 299 297 294 293 294 290 294 300 299 302 305 307 309 312 313 312 314 317 318 323 325 327 328 329 330 332 332 331 329 329 329 328 327 327 328 329 328 328 327 327 328 327 326 326 326 326 324
301 296 295 295 293 285 291 291 291 295 297 300 304 306 307 308 310 312 314 316 317 321 323 324 322 324 329 330 332 331 330 329 328 328 327 327 327 328 328 328 327 327 328 327 327 327 326 325 325
298 293 284 283 282 283 291 289 292 297 299 300 301 304 306 309 309 311 311 311 312 316 318 318 318 318 321 326 330 331 331 331 329 329 328 328 328 328 328 328 327 327 328 328 328 327 327 326 324
295 293 286 278 280 283 290 285 291 300 303 303 304 305 307 308 308 308 307 308 309 310 312 312 312 312 315 318 322 330 331 331 331 331 330 330 329 329 330 329 329 328 328 328 328 328 327 327 325
293 289 296 287 284 283 288 291 296 300 299 301 301 302 303 306 305 306 306 306 306 308 310 311 310 311 312 313 316 321 328 330 330 330 331 331 331 330 330 329 328 329 329 329 328 327 326 326 325
296 298 286 288 279 278 283 286 287 293 295 298 299 301 303 303 304 305 306 306 307 308 309 309 310 309 310 311 313 314 320 325 329 330 329 330 331 331 330 329 327 327 327 328 327 326 325 324 323
290 291 292 291 288 281 280 284 295 295 296 296 298 301 302 303 304 304 304 305 307 308 308 308 309 310 310 310 312 314 315 319 324 326 328 329 330 330 329 328 328 325 325 325 324 324 323 322 322
296 292 293 285 283 287 285 285 297 297 297 298 299 300 301 303 303 302 302 304 305 305 306 308 309 310 310 310 310 311 313 316 319 322 325 328 328 329 328 328 327 326 324 324 322 321 321 320 319
Wind_Speed
18 14 7 7 4 2 6 5 4 6 4 4 4 5 11 8 11 6 8 6 12 11 14 11 8 11 13 13 13 12 13 13 13 13 13 13 13 12 13 12 14 16 15 14 15 15 15 16 16
15 12 7 3 4 1 8 6 5 5 7 3 2 3 2 7 8 8 10 7 11 10 11 12 9 10 12 12 12 11 12 13 13 12 12 13 13 12 13 12 13 14 15 14 14 14 15 14 15
14 6 6 1 3 7 6 3 10 7 4 2 1 1 5 7 6 11 9 12 11 9 8 13 9 10 12 11 11 11 11 11 13 12 12 11 12 11 12 12 14 15 14 14 14 14 14 14 14
6 5 4 4 5 6 5 6 8 7 3 1 3 3 6 5 3 5 11 11 10 9 8 10 8 10 11 12 12 11 11 11 11 12 12 11 11 9 11 13 12 13 13 13 13 13 13 13 12
5 4 4 1 3 5 4 7 8 7 3 3 2 6 4 4 6 12 10 9 10 9 10 10 7 8 9 11 11 11 10 10 11 12 12 10 11 9 10 12 12 11 11 12 12 12 12 12 11
5 3 6 5 6 4 4 7 8 7 4 6 5 0 6 7 10 13 9 9 9 9 8 10 8 7 7 10 11 10 10 10 11 11 11 10 10 10 8 10 9 8 8 11 12 11 11 10 10
7 6 8 4 3 5 4 7 8 6 6 5 3 0 7 9 10 12 10 8 8 9 9 9 10 9 6 8 9 10 10 10 10 9 9 9 9 9 8 9 7 9 8 10 11 10 10 9 9
5 6 6 6 6 3 6 9 2 4 5 5 3 2 7 11 14 13 11 9 9 9 9 9 11 11 11 10 7 8 9 10 9 9 8 8 7 8 5 6 6 9 8 8 9 9 9 9 8
3 6 9 7 6 3 9 9 4 3 3 5 5 2 8 16 16 13 9 10 9 9 9 9 10 11 8 9 9 7 6 7 8 7 7 9 6 8 9 6 6 8 8 8 7 8 8 8 6
7 9 11 9 7 2 9 9 9 6 9 8 7 6 7 17 17 15 14 13 13 11 12 10 10 10 10 6 11 10 9 8 8 8 9 7 6 5 5 7 6 6 6 5 6 6 6 7 6
8 14 5 2 8 10 5 7 5 8 7 10 12 12 11 14 15 16 16 14 15 14 11 12 11 11 11 6 7 5 4 4 4 9 9 6 5 4 5 5 5 5 5 5 5 5 6 3 2
11 13 6 4 3 3 4 6 6 11 7 6 3 6 15 15 14 15 16 16 16 16 15 14 14 12 12 8 7 8 5 4 5 8 9 6 5 6 6 5 7 6 5 5 4 4 2 3 3
14 17 4 6 3 4 4 9 10 8 12 4 3 5 12 13 14 14 14 14 15 16 17 16 15 14 12 12 9 9 8 8 9 8 9 8 7 6 6 6 5 6 6 6 5 4 5 5 4
4 16 13 8 6 5 6 12 4 7 15 9 7 9 10 12 14 14 15 15 15 15 17 17 18 16 14 13 12 9 7 7 7 7 9 11 7 6 6 6 6 6 6 6 5 5 5 5 5
7 9 12 14 14 12 6 15 21 15 13 10 13 14 13 12 12 16 14 15 15 15 16 18 19 19 16 16 13 10 8 9 8 8 11 12 10 9 8 6 6 6 6 7 6 6 5 5 5
9 13 16 14 15 8 8 21 19 18 17 19 16 15 14 14 16 14 12 14 15 15 16 16 12 16 17 15 12 10 10 9 8 8 9 12 12 12 9 7 7 7 6 7 7 7 6 6 6
10 12 17 17 10 10 16 16 17 21 14 13 14 14 13 13 15 14 13 14 15 15 16 16 16 17 17 14 11 12 13 10 9 9 9 13 13 13 9 8 7 9 7 7 7 6 7 6 6
14 14 17 14 13 13 18 18 18 16 8 12 14 14 14 14 15 14 15 15 14 14 15 15 14 17 16 11 11 9 9 10 10 10 10 14 11 13 12 9 9 9 8 8 7 8 7 6 6
15 14 15 14 15 8 18 20 19 20 20 20 20 19 18 18 16 14 13 13 14 14 15 17 17 18 13 12 12 12 12 11 11 11 15 15 13 15 13 10 11 10 10 10 10 9 9 7 6
19 13 14 10 6 7 16 22 19 18 21 20 21 20 19 19 18 17 15 14 15 17 17 18 18 17 15 12 11 11 11 11 11 11 13 15 16 16 15 13 12 13 10 11 11 11 8 7 8
19 18 15 14 6 11 18 27 23 21 26 24 22 21 20 20 20 19 17 16 16 16 16 17 18 19 18 18 11 11 10 10 11 12 12 15 18 18 17 17 13 13 12 11 11 12 13 8 8
19 13 11 10 5 10 2 16 19 13 17 19 13 13 16 19 18 17 17 16 16 13 12 15 15 17 17 18 15 19 15 15 14 12 12 13 18 18 18 17 16 15 11 13 12 11 11 11 9
17 14 11 12 14 10 20 15 7 19 20 18 14 14 14 14 14 14 12 10 10 8 9 10 14 15 17 18 19 16 18 13 12 12 15 17 16 19 19 19 18 16 13 14 14 13 14 11 9
9 6 2 4 9 11 18 16 14 15 19 15 14 12 13 11 9 7 9 8 8 7 8 8 12 14 15 16 19 21 21 19 14 15 13 13 13 14 19 20 18 18 16 16 15 15 16 14 12
14 11 4 6 7 12 9 15 21 11 12 11 8 9 8 6 7 6 9 10 10 7 7 7 9 12 13 14 17 20 22 21 21 18 14 15 13 14 18 21 19 16 19 18 16 16 16 16 14
22 16 8 9 11 10 8 12 11 4 3 7 7 7 6 5 5 5 8 6 5 4 8 7 6 9 10 12 15 17 20 15 16 18 15 14 14 15 18 19 20 22 20 19 18 14 15 16 15
16 21 19 3 2 3 8 13 15 16 18 16 17 13 9 5 8 5 4 5 5 7 8 8 8 9 10 11 11 14 16 20 18 20 18 15 16 15 18 19 21 21 21 20 19 14 16 16 16
14 15 6 5 9 10 11 16 12 5 5 7 1 6 5 4 3 5 6 9 9 9 9 9 9 11 13 12 11 11 14 17 18 17 20 19 18 18 18 19 20 21 20 20 20 17 18 17 13
6 15 11 6 11 9 8 8 12 14 10 8 8 5 3 1 4 8 11 11 10 8 9 10 11 11 11 11 12 12 13 15 16 17 18 20 19 19 19 19 19 20 21 20 19 20 19 19 18
20 17 18 8 10 10 13 14 19 15 10 5 7 3 3 5 9 13 13 11 10 11 11 12 12 12 11 11 13 13 13 14 15 17 18 19 20 19 19 19 19 19 19 20 21 21 19 20 20
Wind_Direction
313 320 292 250 239 194 104 97 94 102 132 55 53 329 11 26 10 37 139 109 130 136 121 142 125 126 123 121 117 113 110 106 101 100 100 102 103 107 96 92 102 98 96 93 91 87 87 83 82
315 320 241 261 288 10 80 106 129 90 65 94 127 270 248 74 59 116 146 153 144 138 147 137 132 139 132 129 125 118 114 112 109 105 104 103 111 109 101 98 105 102 97 96 93 89 87 87 86
305 282 283 323 337 57 71 96 98 103 112 175 172 337 8 57 70 143 96 159 144 140 156 117 138 147 143 140 127 121 118 116 114 111 110 108 119 103 111 94 101 104 98 99 95 94 93 92 91
326 213 223 276 92 87 84 123 118 141 136 212 352 142 117 45 112 100 126 155 151 149 128 125 141 148 150 145 136 130 126 121 116 116 112 113 120 87 98 93 92 98 108 102 100 101 99 96 94
260 252 259 238 93 119 127 129 153 153 102 124 207 87 75 98 105 117 143 169 148 154 133 149 149 146 150 149 139 135 129 127 124 119 118 120 126 108 98 95 87 82 104 108 105 105 100 98 95
287 278 258 240 123 124 136 161 167 161 130 120 198 206 80 115 145 130 152 176 152 154 151 135 142 142 154 152 146 142 136 132 129 129 125 124 128 136 102 112 119 97 104 112 112 108 104 103 99
307 284 290 306 152 171 137 173 179 170 153 159 101 273 91 153 138 136 167 170 161 158 175 165 168 159 149 156 151 145 139 135 138 136 127 119 133 139 142 134 123 119 115 121 121 117 114 111 104
295 274 260 235 217 160 139 167 248 203 162 95 198 119 119 145 146 154 169 169 180 166 183 183 172 171 174 166 150 147 144 140 139 131 119 115 107 135 106 132 143 129 120 120 131 129 122 115 109
283 261 249 235 240 165 153 185 166 26 248 224 172 54 113 132 152 152 168 181 183 179 189 191 180 188 174 172 158 143 134 129 124 127 128 148 156 173 165 81 126 134 129 126 126 141 132 123 113
246 249 263 7 306 274 181 205 170 200 203 204 191 118 145 153 164 164 184 185 192 196 191 192 192 189 175 179 157 182 163 178 186 182 176 203 170 148 155 117 111 115 123 127 134 141 158 199 166
223 247 315 9 358 323 187 219 205 220 222 221 204 182 173 177 182 184 192 195 193 191 197 196 195 195 186 181 186 180 174 180 213 197 191 204 189 165 170 150 164 162 194 183 183 172 214 220 236
251 245 279 9 17 312 262 329 232 237 241 34 216 180 176 189 205 206 200 193 190 193 198 196 196 198 196 189 192 193 186 172 214 202 195 193 196 187 198 182 187 186 191 206 212 206 211 210 232
239 252 230 253 257 261 286 256 259 257 256 177 134 197 190 201 207 218 217 208 197 195 193 195 199 196 199 205 188 210 206 189 216 204 194 204 205 195 198 200 193 202 195 201 210 212 204 211 221
225 236 234 228 233 245 259 257 256 234 237 242 219 222 219 220 218 218 218 214 209 204 200 195 195 200 199 201 206 205 207 202 210 206 199 205 208 197 202 201 206 207 204 205 211 208 212 214 210
248 235 240 240 243 244 259 254 243 248 249 250 248 236 241 242 231 226 219 218 212 213 209 205 197 195 199 203 205 205 203 208 203 204 204 200 209 202 203 204 206 209 205 216 218 217 223 223 211
225 234 246 232 218 226 217 260 253 245 239 249 248 250 244 238 239 235 231 218 219 219 215 209 203 205 201 198 200 204 204 204 201 203 204 204 205 209 201 206 207 207 200 208 213 213 213 221 217
217 237 228 240 194 229 212 258 251 253 229 238 254 252 243 243 244 239 230 227 222 219 216 214 209 209 212 212 200 205 209 205 205 202 204 205 205 204 205 207 205 201 205 208 212 216 222 215 225
227 225 248 238 206 227 240 246 263 264 219 242 256 263 262 251 250 254 243 228 229 222 218 216 210 211 212 209 215 211 210 209 210 208 203 208 206 204 205 206 206 200 205 207 210 215 213 236 225
263 283 237 229 248 259 247 252 251 257 256 257 257 254 256 259 262 245 247 248 222 226 223 216 216 212 205 209 206 209 210 206 211 214 209 204 205 203 208 210 205 200 207 209 206 207 218 214 233
243 243 246 257 255 258 276 267 259 253 260 259 259 260 259 260 258 259 245 239 234 226 222 220 218 216 213 213 213 212 210 210 215 215 214 207 203 207 205 208 207 202 207 212 211 206 205 215 201
231 230 242 255 234 260 278 272 258 250 255 251 251 257 257 256 261 260 256 240 227 232 227 225 219 213 210 216 214 216 225 217 212 217 214 211 208 205 207 206 209 205 202 208 207 204 210 205 208
227 226 253 273 291 261 67 286 275 268 238 230 233 249 253 249 250 259 263 264 265 228 233 232 236 229 223 214 214 214 214 214 216 211 214 211 213 212 211 208 207 206 205 209 206 205 207 215 205
235 237 228 247 254 286 261 272 266 237 249 252 240 260 248 252 260 268 274 288 281 274 273 239 246 239 229 220 216 217 222 225 225 217 210 213 211 210 210 209 208 210 208 210 209 203 207 208 214
151 103 212 267 249 243 249 247 273 244 253 248 230 240 257 250 282 292 298 299 284 289 285 268 258 257 248 236 226 225 227 227 224 220 216 214 212 209 213 212 209 209 209 208 206 206 206 207 209
175 168 204 221 213 244 247 216 244 314 309 300 295 273 280 234 291 349 330 320 325 322 329 305 284 271 271 256 238 233 232 233 230 228 223 217 213 210 209 209 210 209 210 208 204 207 206 206 208
196 176 192 207 213 246 183 234 244 30 322 267 268 286 313 281 281 14 8 359 1 356 326 320 310 294 279 265 263 238 239 236 241 235 233 227 220 216 213 210 210 213 211 209 206 206 208 206 210
197 214 221 282 85 296 221 244 274 264 262 255 265 253 278 57 60 24 27 17 337 300 301 290 286 287 286 276 267 257 245 238 240 243 239 238 231 225 218 211 212 211 212 209 209 208 210 209 209
198 189 175 195 205 227 236 247 254 239 178 187 286 174 71 71 31 352 333 323 316 313 316 307 295 297 293 289 277 267 258 251 243 242 243 242 240 230 225 217 213 213 210 211 212 211 213 211 210
176 192 209 216 228 229 247 242 231 255 274 284 268 102 101 34 332 329 334 332 334 318 303 309 306 300 292 294 289 275 265 256 251 244 242 242 241 237 229 221 219 212 210 209 213 213 211 212 210
218 197 198 210 204 242 263 263 276 290 288 260 149 132 326 312 318 341 334 335 332 328 321 320 310 301 295 289 291 288 277 263 257 249 246 239 239 237 234 228 222 217 213 210 210 210 209 211 212